Location: Hawks Ness
(60.2333°N, 1.1667°W)
Time: 23:34:20
(UTC+00:00)

ATLAS 2AS CENTAUR R/B - Pass Details

Date: 22 October 2019
Orbit: 926 x 1286 km, 63.7° (Epoch: 09 November)

Event Time Altitude Azimuth Distance (km) Brightness Sun altitude
Exits shadow 04:21:11 20° 214° (SW) 2,602 4.3 -20.3°
Maximum altitude 04:27:02 66° 138° (SE) 1,390 3.3 -19.6°
Drops below altitude 10° 04:34:51 10° 59° (ENE) 3,239 6.3 -18.7°
Sets 04:37:36 0° 57° (ENE) 4,175 7.0 -18.3°
